(364) Isara
ephemeris date magn radius delta ra dec elong phase
Today5 Sep 202614.92.487 AU2.379 AU16h18m-19°41'84.2°23.8°
Opposition5 Nov 202711.61.899 AU0.916 AU02h56m+05°08'168.9°5.8°
(364) Isara - 2026-09-05
astro.vanbuitenen.nl


 
-1 year
-1 month
-1 day
Now
+1 day
+1 month
+1 year

The interactive orbit chart above shows the body's path through the solar system and its position at the given date. Green and blue lines are shown perpendicular to the ecliptic plane: Green if the path is above the ecliptic plane, blue if it is below. (Left-click and drag to rotate the view; Right-click and drag to move the view; Use scroll wheel to zoom in our out.)

The orbital elements of Isara are:

            e (Eccentricity)                : 0.1490474
            a (Semimajor axis)              : 2.2205576
            i (Inclination)                 : 6.00614
            Ω (Longitude of ascending node) : 105.50233
            ω (Argument of perihelion)      : 312.98737
            M (Mean anomaly)                : 195.10732
            Epoch                           : 2026 Jun 09

            L (Longitude of perihelion)     : 58.64703
            B (Latitude of perihelion)      : -4.38977
            P (Orbital period in years)     : 3.31            
        

The light curve chart below shows the estimated development of the minor planet's magnitude.


The all-sky chart below shows the path of the minor planet over the same period as the light curve. The current position is marked yellow.





The following chart shows the path of the minor planet in the next few days. The field of view is optimized for (~10x50) binoculars and finderscopes.




Ephemerides:
Date       Time       RA (2000)    DEC (2000)    delta   radius  elong  phase   PA    magn
2026-09-05 00:00 UT   16 18 45.4   -19 41 52     2.379    2.487   84.2   23.8   100   14.9 
2026-09-05 14:19 UT   16 19 24.0   -19 44 40     2.386    2.487   83.7   23.8   100   14.9 
2026-09-06 00:00 UT   16 19 50.3   -19 46 33     2.391    2.486   83.5   23.8   100   14.9 
2026-09-07 00:00 UT   16 20 56.4   -19 51 13     2.403    2.486   82.8   23.7    99   14.9 
2026-09-08 00:00 UT   16 22 03.4   -19 55 53     2.415    2.485   82.1   23.7    99   14.9 
2026-09-09 00:00 UT   16 23 11.5   -20 00 32     2.427    2.484   81.4   23.6    99   14.9 
2026-09-10 00:00 UT   16 24 20.5   -20 05 10     2.439    2.483   80.7   23.6    99   14.9 
2026-09-11 00:00 UT   16 25 30.6   -20 09 47     2.450    2.482   80.0   23.5    99   14.9 
2026-09-12 00:00 UT   16 26 41.6   -20 14 24     2.462    2.481   79.3   23.5    99   14.9 
2026-09-13 00:00 UT   16 27 53.7   -20 18 59     2.474    2.480   78.6   23.4    99   14.9 
2026-09-14 00:00 UT   16 29 06.6   -20 23 34     2.486    2.479   77.9   23.4    99   15.0 
2026-09-15 00:00 UT   16 30 20.5   -20 28 07     2.498    2.478   77.3   23.3    98   15.0 
2026-09-16 00:00 UT   16 31 35.4   -20 32 39     2.509    2.477   76.6   23.3    98   15.0 
2026-09-17 00:00 UT   16 32 51.1   -20 37 09     2.521    2.476   75.9   23.2    98   15.0 
2026-09-18 00:00 UT   16 34 07.8   -20 41 38     2.532    2.475   75.2   23.1    98   15.0 
2026-09-19 00:00 UT   16 35 25.3   -20 46 06     2.544    2.474   74.6   23.0    98   15.0 
2026-09-20 00:00 UT   16 36 43.8   -20 50 31     2.555    2.473   73.9   23.0    98   15.0 
2026-09-21 00:00 UT   16 38 03.1   -20 54 55     2.567    2.472   73.2   22.9    98   15.0 
2026-09-22 00:00 UT   16 39 23.2   -20 59 17     2.578    2.471   72.6   22.8    98   15.0 
2026-09-23 00:00 UT   16 40 44.2   -21 03 37     2.590    2.470   71.9   22.7    97   15.0 
2026-09-24 00:00 UT   16 42 06.0   -21 07 55     2.601    2.469   71.3   22.6    97   15.0 
2026-09-25 00:00 UT   16 43 28.6   -21 12 11     2.612    2.468   70.6   22.5    97   15.0 
2026-09-26 00:00 UT   16 44 52.1   -21 16 25     2.623    2.467   70.0   22.5    97   15.0 
2026-09-27 00:00 UT   16 46 16.3   -21 20 36     2.634    2.466   69.3   22.4    97   15.0 
2026-09-28 00:00 UT   16 47 41.3   -21 24 45     2.646    2.465   68.7   22.3    97   15.0 
2026-09-29 00:00 UT   16 49 07.2   -21 28 52     2.657    2.464   68.0   22.2    97   15.0 
2026-09-30 00:00 UT   16 50 33.7   -21 32 56     2.667    2.463   67.4   22.1    96   15.1 
2026-10-01 00:00 UT   16 52 01.1   -21 36 57     2.678    2.462   66.8   21.9    96   15.1 
2026-10-02 00:00 UT   16 53 29.2   -21 40 56     2.689    2.461   66.1   21.8    96   15.1 


    Terminology:
            
    delta:  distance between minor planet and earth in AU
    radius: distance between minor planet and sun in AU
    magn:   magnitude (brightness) estimate    
    ra:     right ascension in hours (24h = 360deg)
    dec:    declination in degrees
    elong:  elongation in degrees (angle sun-earth-minor planet)    
    phase:  phase angle in degrees (angle sun-minor planet-earth)        
    AU:     Astronomical Unit (mean distance between earth and sun: 149597870.7 km
    

Orbital elements provided by the MPC (Minor Planet Center).
Calculations by a modified version of AAPlus, a C# implementation of the AA+ project by PJ Naughter from the algorithms presented in the book "Astronomical Algorithms" by Jean Meeus.
NGC2000 dso catalog and star labels from VizieR as provided by the Strasbourg astronomical Data Center.
Tycho2 catalog from the ESO archive.